Content
SEND FEEDBACK

Daily
Averages
Monthly
Summary
United States of America

UPI, GUAM


Home > North America > United States > Guam
Elevation: 53 feet     Latitude: 13 34N     Longitude: 144 55E

WEATHER
 
SELECT A DAY
Number of Records: 208,997;   Date Range: 1/1/95 - 7/26/14
 
SHARE

PRINT THIS DATA

[ ← Previous Day ]
WEATHER ALMANAC - JANUARY 1, 2014
[ Next Day → ]
[ °C ]   °F
Weather ElementAverageHighLow
Temperature79.6 °F82.9 °F (10:54 am)75.9 °F (1:54 am)
Dewpoint75.1 °F79 °F (11:54 am)73 °F (1:54 am)
Humidity86.3 %100 % (7:54 am)74 % (1:54 pm)
Barometer29.87 in29.92 in (11:05 am)29.82 in (2:54 pm)
Wind Speed12.5 mph21.9 mph (8:54 am)
Wind Gust33.4 mph (11:05 am)
Weather ElementAverage
Visibility8.9 mi
Wind DirectionENE (63.5 °)

Weather ElementTotal
Precipitation0.20 in
Cooling Degree Days14.4 (Base 65)
Growing Degree Days29.4 (Base 50)
Averaged from 26 records on January 1, 2014
WEATHER CONDITIONS BREAKOUT
WIND DIRECTION BREAKOUT
WEATHER BY HOUR - JANUARY 1, 2014
[ °C ]   °F
Local TimeTemperatureDewpointHumidityBarometerVisibilityWind DirectionWind SpeedGust SpeedPrecipitationEventsConditions
1:54 AM75.9 °F73.0 °F91 %29.86 in10.0 miENE (60°)8.1 mph0.01 inScattered Clouds
2:54 AM76.5 °F73.9 °F92 %29.83 in10.0 miENE (60°)11.5 mphPartly Cloudy
3:54 AM77.0 °F73.9 °F90 %29.83 in10.0 miENE (70°)11.5 mphScattered Clouds
4:54 AM77.0 °F73.9 °F90 %29.83 in10.0 miENE (60°)6.9 mphClear
5:54 AM77.0 °F73.9 °F90 %29.84 in10.0 miENE (60°)10.4 mphClear
6:54 AM75.9 °F73.9 °F94 %29.86 in10.0 miNE (50°)13.8 mph0.00 inMostly Cloudy
7:54 AM78.8 °F78.8 °F100 %29.90 in10.0 miENE (60°)13.8 mphPartly Cloudy
8:54 AM80.2 °F77.4 °F91 %29.91 in6.0 miENE (60°)21.9 mph27.6 mph0.03 inRainLight Rain
9:54 AM80.1 °F75.9 °F87 %29.91 in10.0 miENE (60°)15.0 mph0.00 inMostly Cloudy
10:54 AM82.9 °F75.0 °F77 %29.89 in10.0 miENE (60°)12.7 mphMostly Cloudy
11:05 AM80.6 °F75.2 °F84 %29.92 in1.8 miENE (60°)16.1 mph33.4 mph0.03 inRainHeavy Rain
11:09 AM80.6 °F75.2 °F84 %29.91 in2.0 miENE (60°)13.8 mph25.3 mph0.04 inRainRain
11:11 AM80.6 °F75.2 °F84 %29.91 in5.0 miENE (60°)13.8 mph0.04 inRainLight Rain
11:54 AM82.0 °F79.0 °F90 %29.88 in10.0 miNE (50°)11.5 mph0.04 inMostly Cloudy
12:54 PM82.9 °F75.0 °F77 %29.85 in10.0 miENE (60°)13.8 mph0.00 inMostly Cloudy
1:54 PM82.9 °F73.9 °F74 %29.83 in10.0 miENE (70°)15.0 mph21.9 mphMostly Cloudy
2:54 PM82.9 °F75.0 °F77 %29.82 in10.0 miENE (60°)15.0 mphMostly Cloudy
3:54 PM82.9 °F75.0 °F77 %29.82 in10.0 miEast (80°)16.1 mphScattered Clouds
4:54 PM82.0 °F75.9 °F82 %29.83 in10.0 miENE (60°)12.7 mph0.00 inMostly Cloudy
5:54 PM81.0 °F75.0 °F82 %29.85 in10.0 miENE (70°)10.4 mphPartly Cloudy
6:54 PM80.1 °F75.0 °F85 %29.86 in10.0 miENE (70°)9.2 mphScattered Clouds
7:54 PM80.1 °F73.9 °F81 %29.90 in10.0 miENE (70°)9.2 mphClear
8:54 PM78.1 °F75.0 °F90 %29.89 in10.0 miNE (50°)8.1 mphPartly Cloudy
9:54 PM77.0 °F73.9 °F90 %29.90 in7.0 miEast (90°)10.4 mph0.01 inRainRain
10:54 PM77.9 °F75.0 °F91 %29.89 in10.0 miENE (70°)12.7 mph0.00 inMostly Cloudy
11:54 PM77.0 °F75.0 °F94 %29.89 in10.0 miENE (70°)11.5 mphClear
Hourly data recorded from PGUM, located miles away from Upi, Guam







STORIES FROM OUR PARTNERS